Location: Unspecified
(0.0000°N, 0.0000°E)
Time: 08:58:06
(UTC+01:00)

Milstar 3 - Visible Passes

Search period start: 19 December 2014 00:00
Search period end: 29 December 2014 00:00
Orbit: 1102 x 5144 km, 28.2° (Epoch: 24 November)

Date Brightness Start Highest point End Pass type
(mag) Time Alt. Az. Time Alt. Az. Time Alt. Az.
19 Dec 6.5 00:59:33 33° E 00:59:33 33° E 01:14:57 10° E visible
19 Dec 5.7 03:33:06 66° WNW 03:41:08 88° SSW 04:10:52 10° ESE visible
19 Dec 6.3 06:07:50 10° W 06:38:02 45° SSW 06:58:11 10° SE visible
19 Dec 5.5 20:36:11 10° NNW 20:43:37 18° N 20:46:51 17° NNE visible
20 Dec 6.3 00:01:25 15° E 00:01:25 15° E 00:05:06 10° E visible
20 Dec 5.7 02:34:57 77° NE 02:34:57 77° NE 03:05:59 10° ESE visible
20 Dec 6.1 05:08:30 25° W 05:31:20 57° SSW 05:55:36 10° SE visible
20 Dec 5.3 19:34:03 10° NW 19:39:27 16° N 19:46:41 10° NE visible
20 Dec 5.8 22:19:07 10° NNW 22:22:31 18° NNW 22:22:31 18° NNW visible
21 Dec 6.1 01:36:47 52° E 01:36:47 52° E 01:59:40 10° ESE visible
21 Dec 5.9 04:10:19 47° W 04:24:11 70° SSW 04:52:19 10° SE visible
21 Dec 5.6 21:17:40 10° NNW 21:24:38 21° N 21:24:38 21° N visible
22 Dec 6.5 00:38:34 29° E 00:38:34 29° E 00:51:36 10° E visible
22 Dec 5.7 03:12:06 74° W 03:16:55 84° SSW 03:48:10 10° SE visible
22 Dec 6.4 05:45:38 11° W 06:14:54 44° SSW 06:36:32 10° SE visible
22 Dec 5.5 20:16:19 10° NNW 20:22:34 16° NNE 20:26:46 14° NNE visible
22 Dec 6.1 22:59:35 10° NW 23:40:19 12° E 23:41:41 10° E visible
23 Dec 5.8 02:13:51 75° E 02:13:51 75° E 02:42:54 10° ESE visible
23 Dec 6.2 04:47:23 29° W 05:07:37 54° SSW 05:33:30 10° SE visible
23 Dec 5.3 19:14:43 10° NNW 19:18:35 13° N 19:23:17 10° NNE visible
23 Dec 5.6 21:58:13 10° NNW 22:02:29 20° NNW 22:02:29 20° NNW visible
24 Dec 6.1 01:15:34 48° E 01:15:34 48° E 01:36:16 10° ESE visible
24 Dec 5.9 03:49:05 51° W 04:00:08 66° SSW 04:29:47 10° SE visible
24 Dec 6.5 06:31:45 10° W 06:59:13 34° SSW 07:17:47 10° SE visible
24 Dec 5.5 20:57:12 10° NNW 21:04:39 20° NNE 21:04:39 20° NNE visible
25 Dec 6.4 00:17:14 26° E 00:17:14 26° E 00:28:01 10° ESE visible
25 Dec 5.7 02:50:46 78° WSW 02:52:48 79° SSW 03:25:12 10° SE visible
25 Dec 6.4 05:24:17 14° W 05:51:45 42° SSW 06:14:46 10° SE visible
25 Dec 5.4 19:56:28 10° NNW 20:01:33 14° NNE 20:06:51 11° NE visible
25 Dec 5.8 22:38:21 10° NW 22:40:26 16° NNW 22:40:26 16° NNW visible
26 Dec 5.8 01:52:24 69° ESE 01:52:24 69° ESE 02:19:32 10° ESE visible
26 Dec 6.3 04:25:55 31° W 04:43:56 52° SSW 05:11:15 10° SE visible
26 Dec 5.4 21:37:18 10° NNW 21:42:39 23° N 21:42:39 23° N visible
27 Dec 6.2 00:54:00 43° ESE 00:54:00 43° ESE 01:12:35 10° ESE visible
27 Dec 5.9 03:27:31 53° WSW 03:36:11 62° SSW 04:07:02 10° SE visible
27 Dec 6.6 06:08:48 10° WSW 06:36:41 34° SSW 06:56:30 10° SE visible
27 Dec 5.4 20:36:39 10° NNW 20:44:23 19° NNE 20:44:54 19° NNE visible
27 Dec 6.1 23:18:25 10° NW 23:55:34 23° E 00:04:13 10° ESE visible
28 Dec 5.7 02:29:04 75° SSW 02:29:04 75° SSW 03:01:58 10° SE visible
28 Dec 6.5 05:02:35 15° W 05:28:36 41° SSW 05:52:55 10° SE visible
28 Dec 5.4 19:36:40 10° N 19:40:33 12° NNE 19:45:17 10° NE visible
28 Dec 5.6 22:17:10 10° NW 22:20:46 22° NNW 22:20:46 22° NNW visible
